Overview Statistics Trail Chart Weather Telemetry Raw packets
 

This is the latest recevied weather packets stored in our database for station/object G0TQM-11. If no packets are shown the sender has not sent any weather packets the latest 10 day(s).

<< 8 9 10 11 12 13 14 >>
Time Temp. Humidity Pressure Rain* Wind** Luminosity Snow
1788408114 21.67° C 53% 1009.7 hPa - - - -
1788406913 21.67° C 54% 1009.8 hPa - - - -
1788405713 21.11° C 57% 1009.4 hPa - - - -
1788404513 21.67° C 57% 1009.3 hPa - - - -
1788403313 22.78° C 55% 1009.1 hPa - - - -
1788402113 22.22° C 56% 1009.1 hPa - - - -
1788400913 22.22° C 56% 1009.1 hPa - - - -
1788399713 22.22° C 58% 1009.1 hPa - - - -
1788398512 22.22° C 60% 1009.2 hPa - - - -
1788397312 21.67° C 62% 1008.9 hPa - - - -
1788396112 21.67° C 61% 1008.7 hPa - - - -
1788394912 21.67° C 61% 1008.8 hPa - - - -
1788393712 22.22° C 60% 1008.7 hPa - - - -
1788392512 21.67° C 61% 1009.1 hPa - - - -
1788391311 21.67° C 61% 1009 hPa - - - -
1788390111 22.22° C 61% 1008.9 hPa - - - -
1788388911 21.67° C 60% 1008.8 hPa - - - -
1788387711 22.22° C 60% 1008.6 hPa - - - -
1788386511 21.67° C 61% 1008.6 hPa - - - -
1788385311 21.67° C 61% 1008.8 hPa - - - -
1788384111 21.67° C 61% 1009 hPa - - - -
1788382910 21.67° C 61% 1009 hPa - - - -
1788381710 21.67° C 61% 1008.8 hPa - - - -
1788380510 21.67° C 61% 1008.6 hPa - - - -
1788379310 21.67° C 61% 1008.7 hPa - - - -

* Rain since midnight (hover to see other rain measurements)
** Current wind speed in m/s (hover to see current wind gust speed)